TimeCDT,TemperatureF,Dew PointF,Humidity,Sea Level PressureIn,VisibilityMPH,Wind Direction,Wind SpeedMPH,Gust SpeedMPH,PrecipitationIn,Events,Conditions,WindDirDegrees,DateUTC
12:13 AM,48.7,33.8,56,29.92,10.0,NW,13.8,21.9,N/A,,Clear,310,2013-10-26 05:13:00
12:33 AM,47.3,34.0,60,29.93,10.0,WNW,13.8,21.9,N/A,,Clear,300,2013-10-26 05:33:00
12:52 AM,46.4,32.0,57,29.94,10.0,WNW,15.0,20.7,N/A,,Clear,300,2013-10-26 05:52:00
1:13 AM,45.5,31.1,57,29.95,10.0,NW,13.8,27.6,N/A,,Clear,310,2013-10-26 06:13:00
1:32 AM,44.4,31.6,61,29.96,10.0,NW,15.0,21.9,N/A,,Clear,310,2013-10-26 06:32:00
1:53 AM,43.5,31.8,63,29.97,10.0,NW,12.7,17.3,N/A,,Clear,310,2013-10-26 06:53:00
2:13 AM,42.1,31.8,67,29.98,10.0,WNW,12.7,17.3,N/A,,Clear,290,2013-10-26 07:13:00
2:33 AM,40.3,28.4,63,29.98,10.0,WNW,8.1,-,N/A,,Clear,300,2013-10-26 07:33:00
2:53 AM,39.0,28.4,66,30.00,10.0,WNW,10.4,20.7,N/A,,Clear,300,2013-10-26 07:53:00
3:13 AM,38.3,28.0,67,30.01,10.0,WNW,10.4,-,N/A,,Clear,290,2013-10-26 08:13:00
3:32 AM,36.9,28.4,71,30.01,10.0,WNW,13.8,18.4,N/A,,Clear,300,2013-10-26 08:32:00
3:53 AM,36.7,27.5,69,30.02,10.0,NW,13.8,20.7,N/A,,Clear,310,2013-10-26 08:53:00
4:13 AM,36.5,27.5,70,30.03,10.0,WNW,11.5,18.4,N/A,,Clear,300,2013-10-26 09:13:00
4:32 AM,35.6,27.5,72,30.04,10.0,WNW,11.5,18.4,N/A,,Clear,290,2013-10-26 09:32:00
4:53 AM,34.7,27.5,75,30.05,10.0,WNW,10.4,-,N/A,,Clear,290,2013-10-26 09:53:00
5:13 AM,34.7,27.9,76,30.06,10.0,WNW,9.2,-,N/A,,Clear,300,2013-10-26 10:13:00
5:33 AM,33.8,27.3,77,30.06,10.0,WNW,9.2,-,N/A,,Scattered Clouds,300,2013-10-26 10:33:00
5:52 AM,32.9,27.1,79,30.08,10.0,WNW,8.1,-,N/A,,Scattered Clouds,290,2013-10-26 10:52:00
6:13 AM,32.9,27.1,79,30.08,7.0,West,8.1,-,N/A,,Clear,270,2013-10-26 11:13:00
6:32 AM,31.8,27.0,82,30.09,7.0,West,6.9,-,N/A,,Clear,270,2013-10-26 11:32:00
6:53 AM,32.0,27.3,83,30.09,7.0,West,9.2,-,N/A,,Clear,270,2013-10-26 11:53:00
7:13 AM,32.4,28.0,84,30.10,10.0,West,8.1,-,N/A,,Clear,270,2013-10-26 12:13:00
7:32 AM,32.2,28.0,85,30.10,10.0,West,8.1,-,N/A,,Clear,280,2013-10-26 12:32:00
7:53 AM,34.9,28.0,76,30.11,7.0,WNW,10.4,16.1,N/A,,Clear,290,2013-10-26 12:53:00
8:13 AM,34.9,27.5,74,30.11,10.0,WNW,12.7,18.4,N/A,,Clear,300,2013-10-26 13:13:00
8:33 AM,34.7,27.3,74,30.13,10.0,WNW,10.4,-,N/A,,Clear,290,2013-10-26 13:33:00
8:53 AM,35.4,27.3,72,30.14,10.0,WNW,10.4,-,N/A,,Clear,290,2013-10-26 13:53:00
9:13 AM,36.5,27.1,69,30.15,10.0,WNW,15.0,20.7,N/A,,Clear,300,2013-10-26 14:13:00
9:33 AM,38.3,26.8,63,30.15,10.0,NW,17.3,23.0,N/A,,Clear,310,2013-10-26 14:33:00
9:53 AM,38.7,26.8,62,30.16,10.0,NW,15.0,21.9,N/A,,Clear,310,2013-10-26 14:53:00
10:13 AM,40.1,27.0,59,30.16,10.0,NW,16.1,23.0,N/A,,Clear,310,2013-10-26 15:13:00
10:33 AM,40.5,26.4,57,30.16,10.0,WNW,17.3,23.0,N/A,,Clear,300,2013-10-26 15:33:00
10:53 AM,41.4,26.4,55,30.17,10.0,WNW,17.3,24.2,N/A,,Clear,300,2013-10-26 15:53:00
11:12 AM,41.9,25.9,53,30.18,10.0,NW,18.4,26.5,N/A,,Clear,320,2013-10-26 16:12:00
11:33 AM,42.8,25.7,51,30.18,10.0,NW,17.3,24.2,N/A,,Clear,320,2013-10-26 16:33:00
11:53 AM,43.2,25.5,50,30.19,10.0,NW,17.3,24.2,N/A,,Clear,320,2013-10-26 16:53:00
12:12 PM,43.5,26.1,50,30.18,10.0,NW,15.0,21.9,N/A,,Clear,310,2013-10-26 17:12:00
12:33 PM,43.9,26.2,50,30.18,10.0,NW,12.7,23.0,N/A,,Scattered Clouds,310,2013-10-26 17:33:00
12:53 PM,44.4,26.6,50,30.18,10.0,NW,15.0,24.2,N/A,,Clear,320,2013-10-26 17:53:00
1:13 PM,44.2,26.4,50,30.18,10.0,NW,16.1,21.9,N/A,,Clear,310,2013-10-26 18:13:00
1:33 PM,45.3,27.1,49,30.18,10.0,WNW,19.6,26.5,N/A,,Scattered Clouds,300,2013-10-26 18:33:00
1:53 PM,45.5,26.1,47,30.18,10.0,WNW,17.3,21.9,N/A,,Clear,300,2013-10-26 18:53:00
2:13 PM,45.5,26.2,47,30.16,10.0,NW,19.6,24.2,N/A,,Clear,310,2013-10-26 19:13:00
2:33 PM,45.5,26.4,47,30.17,10.0,NW,18.4,25.3,N/A,,Clear,310,2013-10-26 19:33:00
2:52 PM,45.3,26.6,48,30.17,10.0,WNW,17.3,25.3,N/A,,Scattered Clouds,290,2013-10-26 19:52:00
3:13 PM,45.3,26.2,47,30.17,10.0,NW,13.8,21.9,N/A,,Scattered Clouds,310,2013-10-26 20:13:00
3:32 PM,45.0,26.4,48,30.17,10.0,WNW,15.0,21.9,N/A,,Scattered Clouds,290,2013-10-26 20:32:00
3:53 PM,44.8,25.9,48,30.16,10.0,NW,13.8,21.9,N/A,,Scattered Clouds,320,2013-10-26 20:53:00
4:13 PM,45.1,26.1,47,30.16,7.0,WNW,13.8,18.4,N/A,,Scattered Clouds,290,2013-10-26 21:13:00
4:33 PM,43.7,25.7,49,30.16,10.0,WNW,13.8,17.3,N/A,,Clear,300,2013-10-26 21:33:00
4:53 PM,43.3,25.9,50,30.15,7.0,WNW,11.5,17.3,N/A,,Clear,300,2013-10-26 21:53:00
5:13 PM,43.2,26.1,51,30.15,7.0,WNW,10.4,-,N/A,,Clear,300,2013-10-26 22:13:00
5:32 PM,42.1,26.2,53,30.15,7.0,WNW,8.1,-,N/A,,Clear,300,2013-10-26 22:32:00
5:53 PM,41.0,26.1,55,30.15,7.0,WNW,8.1,-,N/A,,Clear,300,2013-10-26 22:53:00
6:13 PM,39.4,26.1,59,30.15,7.0,WNW,5.8,-,N/A,,Clear,300,2013-10-26 23:13:00
6:32 PM,38.3,26.1,61,30.14,7.0,WNW,3.5,-,N/A,,Clear,300,2013-10-26 23:32:00
6:53 PM,36.3,25.3,64,30.13,10.0,WNW,3.5,-,N/A,,Clear,300,2013-10-26 23:53:00
7:13 PM,35.6,25.2,66,30.13,10.0,Calm,Calm,-,N/A,,Clear,0,2013-10-27 00:13:00
7:33 PM,32.7,24.8,73,30.14,7.0,WNW,3.5,-,N/A,,Clear,290,2013-10-27 00:33:00
7:53 PM,32.0,24.8,75,30.14,10.0,NW,3.5,-,N/A,,Clear,310,2013-10-27 00:53:00
8:12 PM,29.8,23.9,79,30.13,7.0,Calm,Calm,-,N/A,,Clear,0,2013-10-27 01:12:00
8:33 PM,30.2,24.6,80,30.11,10.0,Calm,Calm,-,N/A,,Clear,0,2013-10-27 01:33:00
8:53 PM,28.9,23.9,81,30.10,7.0,SW,3.5,-,N/A,,Clear,220,2013-10-27 01:53:00
9:12 PM,27.3,23.4,85,30.10,10.0,Calm,Calm,-,N/A,,Clear,0,2013-10-27 02:12:00
9:33 PM,26.6,22.5,84,30.09,7.0,SSW,4.6,-,N/A,,Clear,200,2013-10-27 02:33:00
9:53 PM,27.3,23.7,86,30.09,7.0,South,5.8,-,N/A,,Clear,190,2013-10-27 02:53:00
10:12 PM,27.7,24.1,86,30.09,7.0,South,5.8,-,N/A,,Clear,190,2013-10-27 03:12:00
10:33 PM,28.6,24.4,84,30.08,7.0,South,6.9,-,N/A,,Clear,190,2013-10-27 03:33:00
10:53 PM,28.2,24.1,84,30.08,7.0,Calm,Calm,-,N/A,,Clear,0,2013-10-27 03:53:00
11:12 PM,27.7,23.9,86,30.06,7.0,South,6.9,-,N/A,,Clear,190,2013-10-27 04:12:00
11:33 PM,25.5,22.3,88,30.06,7.0,South,5.8,-,N/A,,Clear,180,2013-10-27 04:33:00
11:53 PM,25.3,22.3,88,30.05,7.0,South,8.1,-,N/A,,Clear,170,2013-10-27 04:53:00